Location: 22
(39.7117°N, 89.5929°W)
Time: 10:05:39
(UTC-05:00)

S-56A Canister/Altair - Pass Details

Date: 13 February 2023
Orbit: 638 x 2493 km, 38.9° (Epoch: 25 March)

Event Time Altitude Azimuth Distance (km) Brightness Sun altitude
Rises 12:21:05 0° 278° (W) 2,933 10.5 37.0°
Reaches altitude 10° 12:23:22 10° 270° (W) 2,055 9.9 37.0°
Maximum altitude 12:27:37 39° 202° (SSW) 1,082 10.4 36.9°
Drops below altitude 10° 12:32:52 10° 134° (SE) 2,538 10.8 36.8°
Sets 12:36:00 0° 127° (SE) 3,730 11.4 36.8°
